Wind_Speed
8 7 12 15 14 13 11 9 10 8 9 13 14 15 13 13 8 7 8 9 12 13 14 16 17 18 19 19 19 19 19 19 20 19 19 19 18 17 17 17 18 19 17
6 6 12 14 14 13 13 12 10 12 13 15 14 15 14 15 14 12 12 13 13 14 15 16 18 17 18 18 18 18 19 18 17 16 16 18 17 16 16 15 15 17 17
6 6 9 11 12 12 13 14 14 13 14 17 18 17 16 16 16 17 15 15 13 12 13 16 16 16 19 19 20 20 21 20 20 18 18 17 16 16 15 15 13 14 15
3 6 8 10 11 13 14 17 16 15 16 17 19 20 22 23 22 24 18 15 13 15 15 14 15 15 18 20 22 22 20 17 17 14 17 20 21 17 17 17 13 13 15
6 6 5 6 9 15 13 13 15 18 17 19 22 23 27 26 27 24 16 8 10 14 19 17 14 14 16 17 19 18 17 14 12 11 11 13 16 15 15 14 14 13 12
9 6 4 4 6 9 12 15 10 19 19 18 30 33 28 27 21 16 15 3 6 10 12 13 12 15 15 15 16 17 17 15 9 10 10 11 11 11 11 10 10 12 12
11 8 6 6 5 4 7 12 4 17 22 17 28 28 18 18 12 9 10 6 8 10 11 11 11 13 14 14 16 17 17 17 11 7 8 12 12 11 11 9 7 6 7
13 12 8 5 3 4 5 10 8 9 26 18 17 22 19 17 13 14 9 10 9 10 10 11 11 12 13 14 14 14 12 12 9 6 7 7 8 7 7 7 7 6 6
17 14 12 9 8 7 6 17 16 19 22 21 18 15 16 17 13 7 10 10 10 10 10 10 10 11 12 12 12 11 9 6 8 6 5 6 5 4 4 4 3 3 3
19 18 15 14 14 11 12 15 16 18 21 22 14 9 14 13 12 12 11 10 9 9 9 9 9 9 10 11 11 10 9 8 8 7 3 4 5 5 4 3 3 3 3
20 19 18 17 16 14 9 18 18 16 17 17 11 9 12 16 14 11 10 10 9 9 8 9 9 10 11 11 10 10 8 7 7 4 4 5 8 11 14 14 14 13 9
23 22 21 21 19 17 13 19 20 22 22 17 12 10 5 7 11 10 8 9 8 8 9 10 10 11 11 12 11 10 9 8 7 6 8 14 14 15 14 14 11 9 9
23 22 23 23 22 21 17 20 20 20 18 19 16 14 8 9 8 9 7 7 9 9 9 9 8 8 9 10 10 9 9 9 7 8 16 13 10 9 3 2 2 2 1
27 27 26 25 26 23 19 20 21 18 18 18 21 19 17 14 15 15 14 13 11 10 10 9 9 9 9 9 9 9 9 8 7 9 13 15 12 8 7 6 3 2 2
23 31 29 31 29 27 24 25 25 23 22 21 20 18 17 17 16 15 15 13 11 10 10 10 9 10 9 9 9 9 10 11 8 8 13 15 12 7 3 2 2 2 2
24 26 33 34 34 31 28 28 26 24 24 23 21 19 18 16 14 13 12 12 10 9 9 8 8 8 9 9 8 8 9 10 9 9 10 9 6 4 4 4 5 6 6
29 25 31 36 36 36 33 31 27 25 26 23 20 19 19 17 16 14 13 12 11 10 9 9 9 8 8 7 7 7 8 10 9 8 8 7 7 7 6 6 5 5 6
28 30 29 36 36 36 36 34 32 31 27 24 22 20 18 17 16 15 14 12 11 11 11 10 10 9 8 7 6 6 6 7 8 8 8 8 8 6 5 6 6 6 7
29 31 31 34 35 37 36 34 32 31 28 27 24 23 22 20 18 17 14 13 12 11 10 10 10 10 9 9 7 7 7 7 7 8 9 8 8 8 7 6 7 7 8
25 32 32 34 34 36 36 34 34 31 31 29 27 26 25 22 20 20 17 15 12 11 11 11 10 10 9 8 7 7 7 7 7 9 9 9 8 9 8 8 8 9 9
21 28 30 34 35 36 38 36 36 34 35 32 30 28 27 26 24 21 18 17 14 13 13 12 12 10 10 9 8 7 6 7 8 10 9 10 9 8 9 9 10 10 11
21 22 26 31 32 35 36 37 37 37 35 33 32 31 29 28 25 23 20 19 17 15 14 13 12 13 11 11 8 7 5 5 9 9 10 11 11 9 11 10 11 11 12
14 19 21 25 27 30 34 33 33 33 33 32 32 31 30 29 27 25 23 21 19 17 17 16 16 14 14 12 13 7 4 4 6 6 7 9 11 9 11 11 12 13 13
13 13 18 19 23 25 29 30 34 37 37 36 33 33 32 31 30 27 24 23 20 19 17 15 15 14 12 13 13 15 12 7 6 6 7 7 7 8 11 12 13 13 13
8 10 15 16 19 22 26 26 29 32 31 30 31 33 34 32 30 29 27 26 24 22 20 18 16 15 15 13 14 14 14 13 13 8 5 7 6 8 12 12 13 13 14
10 9 9 14 17 20 22 23 26 29 30 30 30 32 34 32 32 32 30 28 26 24 21 20 19 18 17 16 14 14 15 14 14 13 11 9 11 12 15 13 12 11 11
Wind_Direction
207 218 201 200 201 197 199 197 198 208 185 195 188 183 187 175 159 153 154 159 135 125 128 131 129 127 131 127 124 119 114 109 107 107 106 104 107 109 109 108 107 104 101
220 214 196 204 207 207 205 202 193 195 193 184 183 192 194 200 162 166 157 160 137 129 123 130 129 128 125 128 124 119 113 109 106 107 104 101 98 98 98 101 106 107 108
219 200 188 201 201 203 208 206 203 201 196 188 177 173 169 160 162 163 152 148 157 148 125 125 128 130 128 127 122 119 116 111 105 106 108 103 104 99 91 90 95 103 103
218 161 198 198 206 208 211 213 214 213 202 195 186 180 173 164 158 151 140 147 143 140 145 135 132 140 128 123 121 121 118 118 122 121 114 106 99 102 103 96 92 96 95
151 166 181 184 203 217 222 231 226 222 211 199 186 175 171 160 154 142 127 142 129 128 138 142 151 144 134 130 130 130 123 114 131 131 134 128 119 113 115 117 110 102 105
142 157 165 167 204 219 222 214 223 222 205 203 190 152 124 125 130 132 122 121 141 131 149 155 141 133 137 135 134 137 124 98 126 150 148 145 129 136 119 112 117 111 110
149 151 154 159 170 175 201 173 212 196 186 183 133 143 126 115 108 126 124 184 171 147 143 146 142 139 139 139 138 140 144 137 133 139 127 113 113 113 115 117 118 115 112
163 152 171 175 187 209 176 202 171 100 122 131 118 112 108 116 124 124 141 161 159 163 153 152 145 143 141 141 141 143 146 144 138 129 118 123 118 117 121 122 126 133 144
172 162 161 156 143 147 147 140 137 132 136 113 104 104 105 104 84 117 148 157 153 147 146 152 156 153 151 151 154 154 160 152 152 178 131 127 128 119 116 122 132 136 143
180 183 174 162 156 144 135 140 144 137 127 125 108 130 136 114 139 163 154 156 153 151 154 156 155 154 159 160 167 174 181 171 183 190 191 136 121 114 128 136 134 144 157
188 184 188 188 176 155 138 146 141 143 123 113 129 146 148 145 149 158 158 158 159 157 158 157 159 162 164 170 177 184 188 192 207 176 151 123 102 95 95 98 101 99 103
192 192 197 190 193 174 163 168 159 148 141 135 143 155 152 155 147 148 158 165 157 158 161 165 168 170 174 176 181 183 185 191 187 156 122 107 125 121 117 127 130 120 115
195 200 194 194 193 190 195 188 181 170 170 164 167 166 175 181 172 170 212 200 171 170 176 175 173 175 173 181 181 180 178 184 174 164 130 137 149 142 153 171 162 186 211
198 203 194 195 193 200 202 199 194 187 185 192 186 188 192 199 187 188 194 206 192 183 184 182 180 181 179 179 178 175 171 191 193 181 168 154 155 119 113 119 130 155 264
211 200 201 199 202 201 202 204 197 197 196 199 199 196 196 193 196 195 188 190 191 184 182 185 182 185 183 185 188 183 175 194 203 186 187 199 207 230 272 290 285 278 297
227 212 204 205 205 206 205 205 204 204 205 206 205 201 201 200 201 199 192 189 191 192 190 194 191 188 190 193 189 185 180 195 207 202 215 236 250 263 277 295 307 315 316
228 229 208 208 208 209 208 210 208 208 212 210 210 208 206 200 202 204 204 200 192 193 196 197 197 196 197 198 196 193 184 187 215 213 211 230 243 261 277 290 299 306 313
216 222 212 209 210 212 209 211 212 212 211 210 209 211 209 208 208 209 207 206 204 200 194 195 199 202 204 201 205 203 202 201 209 226 247 245 248 255 277 290 297 307 315
213 218 215 209 208 211 211 213 213 214 216 215 212 210 210 211 212 212 213 210 210 207 208 206 208 202 205 202 206 208 209 214 227 231 238 252 257 272 275 277 285 304 313
217 213 220 211 208 213 214 213 215 213 217 216 216 214 213 214 215 218 210 212 212 216 217 212 213 213 214 209 203 212 219 225 223 236 246 250 254 259 266 272 285 292 298
211 210 213 208 208 210 212 211 213 212 215 215 216 213 213 210 213 213 215 214 207 219 222 218 213 216 217 214 216 216 217 226 226 231 244 253 251 255 267 278 287 297 306
201 202 209 216 215 213 214 213 215 213 215 217 214 210 209 212 211 213 211 212 212 217 222 225 223 215 208 204 201 205 202 225 233 242 244 248 254 255 269 275 286 295 304
186 203 206 218 221 217 213 212 213 216 219 217 215 215 213 214 214 209 213 215 210 214 216 219 222 221 218 213 215 208 189 214 190 232 257 253 261 264 268 285 291 301 305
174 186 197 210 219 221 219 216 218 220 218 220 220 217 215 213 214 214 212 217 216 216 216 220 222 224 222 219 215 219 222 202 191 191 229 243 260 262 268 277 286 291 296
141 173 186 197 213 215 226 224 220 226 226 226 221 219 216 214 213 214 212 208 210 212 208 215 217 219 224 227 224 222 225 227 228 219 203 234 249 273 279 291 295 292 292
122 118 154 185 200 214 218 220 225 231 231 230 226 222 219 217 215 214 213 213 210 209 213 209 212 216 222 228 232 234 232 227 227 222 210 205 234 251 277 292 287 286 287
Height
1472 1473 1474 1476 1477 1479 1482 1483 1485 1487 1490 1492 1494 1495 1495 1495 1500 1501 1505 1508 1508 1509 1510 1511 1513 1514 1514 1516 1518 1518 1519 1521 1522 1523 1525 1526 1526 1528 1528 1529 1530 1530 1532
1469 1471 1473 1475 1477 1479 1480 1482 1484 1486 1489 1490 1493 1494 1495 1496 1499 1503 1507 1509 1509 1511 1512 1513 1514 1514 1516 1517 1519 1520 1522 1523 1525 1526 1527 1528 1529 1530 1531 1531 1532 1533 1533
1469 1470 1472 1474 1476 1478 1479 1480 1482 1484 1487 1489 1491 1493 1495 1497 1500 1503 1508 1509 1510 1511 1513 1514 1515 1516 1517 1519 1521 1523 1523 1525 1526 1527 1528 1530 1531 1532 1532 1533 1534 1535 1535
1468 1469 1471 1472 1474 1476 1477 1478 1480 1482 1485 1488 1490 1492 1494 1495 1499 1501 1503 1508 1511 1512 1514 1515 1516 1517 1519 1521 1523 1525 1525 1527 1528 1529 1530 1531 1532 1534 1535 1535 1536 1537 1538
1468 1469 1471 1471 1473 1473 1476 1478 1479 1481 1483 1486 1488 1492 1492 1494 1498 1499 1503 1509 1510 1512 1513 1515 1517 1519 1521 1523 1525 1527 1528 1529 1530 1531 1531 1532 1533 1534 1535 1536 1538 1539 1540
1469 1469 1471 1471 1471 1473 1474 1475 1477 1479 1483 1485 1479 1486 1482 1488 1493 1500 1501 1505 1510 1512 1514 1516 1518 1520 1522 1524 1527 1528 1529 1531 1530 1530 1532 1533 1534 1535 1537 1539 1540 1541 1542
1469 1470 1471 1470 1471 1473 1474 1476 1475 1469 1482 1484 1476 1481 1487 1489 1497 1501 1503 1508 1511 1513 1515 1517 1519 1521 1523 1525 1528 1529 1530 1530 1530 1531 1532 1533 1534 1536 1538 1539 1540 1541 1542
1469 1469 1470 1471 1471 1473 1474 1476 1475 1476 1479 1482 1477 1484 1489 1493 1497 1501 1505 1509 1511 1513 1515 1517 1520 1522 1524 1526 1529 1531 1531 1532 1531 1532 1534 1535 1536 1537 1539 1539 1540 1541 1542
1467 1469 1470 1471 1472 1474 1475 1477 1476 1478 1480 1482 1486 1491 1494 1496 1497 1503 1507 1511 1512 1513 1515 1518 1521 1522 1525 1527 1530 1531 1532 1533 1532 1531 1534 1535 1536 1538 1539 1540 1541 1542 1543
1465 1468 1470 1470 1471 1474 1476 1478 1479 1479 1479 1480 1487 1494 1495 1495 1501 1505 1508 1511 1512 1514 1516 1519 1521 1523 1525 1527 1529 1530 1531 1532 1532 1533 1534 1535 1536 1537 1539 1540 1541 1542 1543
1463 1466 1469 1471 1472 1475 1477 1479 1479 1480 1482 1483 1489 1496 1498 1497 1501 1505 1508 1510 1512 1514 1516 1519 1521 1522 1524 1526 1528 1529 1530 1532 1531 1533 1534 1535 1536 1537 1539 1541 1541 1542 1542
1460 1464 1467 1470 1472 1474 1476 1476 1478 1479 1481 1485 1490 1494 1494 1497 1499 1504 1507 1510 1512 1514 1516 1518 1520 1521 1523 1525 1526 1528 1530 1530 1531 1532 1534 1536 1536 1536 1538 1539 1539 1540 1541
1457 1461 1465 1468 1472 1474 1474 1476 1477 1479 1483 1485 1489 1491 1495 1498 1501 1503 1507 1509 1510 1513 1515 1517 1519 1520 1522 1524 1526 1527 1528 1529 1530 1531 1534 1535 1536 1535 1535 1537 1538 1538 1539
1451 1455 1462 1466 1469 1472 1474 1475 1478 1480 1483 1487 1489 1491 1495 1498 1501 1504 1506 1510 1511 1512 1514 1516 1517 1519 1521 1522 1524 1526 1528 1527 1529 1530 1531 1533 1533 1534 1534 1536 1536 1537 1537
1448 1451 1454 1460 1465 1469 1471 1474 1476 1480 1483 1485 1489 1492 1495 1497 1500 1502 1505 1508 1510 1510 1513 1515 1516 1518 1519 1522 1524 1525 1526 1525 1528 1529 1530 1529 1530 1531 1533 1534 1534 1535 1536
1445 1448 1451 1455 1458 1463 1468 1471 1474 1478 1481 1484 1487 1490 1492 1495 1498 1501 1504 1507 1508 1510 1512 1513 1515 1517 1518 1521 1522 1524 1525 1525 1527 1528 1529 1529 1530 1531 1532 1533 1533 1533 1534
1441 1444 1448 1451 1454 1458 1462 1465 1469 1474 1477 1481 1485 1488 1491 1494 1497 1500 1502 1505 1507 1509 1511 1513 1515 1516 1518 1520 1521 1522 1523 1525 1524 1527 1528 1528 1529 1529 1530 1531 1532 1532 1532
1438 1438 1444 1448 1452 1455 1458 1462 1466 1470 1475 1478 1481 1486 1490 1493 1496 1498 1501 1504 1506 1508 1509 1511 1513 1515 1517 1518 1519 1520 1522 1523 1525 1525 1525 1526 1527 1528 1529 1530 1530 1531 1531
1435 1436 1440 1443 1448 1452 1455 1460 1463 1466 1469 1474 1479 1483 1486 1489 1493 1496 1498 1502 1504 1505 1508 1509 1512 1513 1515 1516 1518 1517 1520 1520 1522 1524 1524 1525 1525 1526 1527 1528 1529 1528 1528
1431 1434 1437 1441 1444 1449 1453 1457 1460 1464 1466 1470 1474 1479 1483 1486 1490 1493 1496 1499 1501 1503 1506 1508 1510 1512 1514 1515 1515 1517 1518 1519 1521 1521 1522 1523 1524 1525 1526 1527 1526 1526 1526
1428 1431 1434 1436 1440 1445 1446 1451 1454 1458 1462 1467 1471 1475 1479 1482 1485 1490 1493 1495 1497 1500 1504 1506 1509 1510 1512 1512 1513 1516 1517 1517 1518 1518 1519 1520 1522 1522 1522 1523 1523 1524 1523
1425 1429 1431 1434 1437 1441 1444 1448 1452 1456 1460 1464 1468 1472 1475 1478 1482 1487 1490 1492 1494 1497 1500 1503 1505 1506 1508 1508 1510 1513 1513 1516 1515 1517 1516 1518 1520 1519 1519 1521 1522 1522 1522
1423 1426 1429 1431 1435 1439 1442 1446 1449 1453 1456 1459 1463 1467 1471 1475 1479 1481 1486 1488 1490 1494 1496 1499 1502 1503 1504 1506 1508 1508 1509 1511 1513 1514 1514 1516 1517 1518 1517 1520 1520 1519 1519
1420 1424 1427 1428 1432 1437 1440 1443 1444 1446 1451 1455 1460 1464 1467 1470 1475 1477 1480 1484 1486 1490 1493 1496 1498 1498 1500 1503 1504 1505 1508 1509 1511 1513 1514 1514 1516 1514 1516 1516 1516 1516 1514
1419 1420 1424 1428 1429 1432 1438 1441 1442 1444 1449 1453 1456 1460 1463 1468 1471 1473 1476 1479 1483 1486 1487 1491 1493 1494 1494 1498 1501 1502 1504 1505 1508 1509 1509 1510 1511 1512 1513 1514 1512 1513 1512
1417 1418 1421 1424 1428 1431 1433 1438 1440 1442 1445 1448 1452 1455 1459 1463 1466 1469 1472 1476 1477 1480 1484 1486 1486 1490 1490 1493 1496 1497 1499 1501 1501 1504 1507 1507 1509 1510 1509 1511 1511 1510 1510